Regional Weather Roundup
Issued by NWS Sterling, VA

Home | Current Version | Previous Version | Graphics & Text | Print | Product List | Glossary On
Versions: 1 2 3 4 5 6 7 8 9 10 11 12 13 14 15 16 17 18 19 20 21 22 23 24 25 26 27 28 29 30 31 32 33 34 35 36 37 38 39 40 41 42 43 44 45 46 47 48 49 50
000
ASUS41 KLWX 062210
RWRLWX

REGIONAL WEATHER ROUNDUP
NATIONAL WEATHER SERVICE BALTIMORE MD/WASHINGTON DC
500 PM EST FRI MAR 06 2015

Note: "FAIR" indicates few or no clouds below 12,000 feet
with no significant weather and/or obstructions to visibility.
 TC=TEMPERATURE CELSIUS

 * =Non NWS site. Station does not report precipitation (e.g. rain,
    snow, etc.), thunder, or fog.

DCZ001-MDZ009-015-VAZ040>042-051-053>054-062300-
WASHINGTON METRO

CITY           SKY/WX    TMP DP  RH WIND       PRES   REMARKS
WASHINGTON NAT MOSUNNY   28   7  41 S7        30.48F
DULLES         MOSUNNY   24   3  40 CALM      30.46F
ANDREWS AFB    SUNNY     22   7  50 E2        30.45F
FT BELVOIR     SUNNY     26   9  49 SE3       30.47F
QUANTICO       SUNNY     26   8  46 S3        30.49F
COLLEGE PARK*  SUNNY     28   5  37 CALM      30.46F
LEESBURG*      SUNNY     27   7  43 CALM      30.46S
MANASSAS*      SUNNY     25   9  50 CALM      30.47F
GAITHERSBURG*  SUNNY     25   1  36 NW5       30.47F

$$

MDZ006>007-011-014-062300-
BALTIMORE METRO

CITY           SKY/WX    TMP DP  RH WIND       PRES   REMARKS
BWI AIRPORT    MOSUNNY   25   5  42 SW3       30.45F
MD SCIENCE CTR   N/A     27   5  39 MISG      30.43F
MARTIN STATE   MOSUNNY   25  12  58 SE6       30.49F
ANNAPOLIS      SUNNY     22   9  57 SE5       30.48F
FORT MEADE*    SUNNY     27   9  46 CALM      30.49S

$$

MDZ012-015-019>023-062300-
MARYLAND EASTERN SHORE

CITY           SKY/WX    TMP DP  RH WIND       PRES   REMARKS
OCEAN CITY     SUNNY     24  14  65 NE9       30.48F WCI  14
SALISBURY      SUNNY     28  13  53 NW6       30.46F
BAY BRIDGE AP*   N/A     25   7  46 CALM      30.48F
CAMBRIDGE*     SUNNY     27   9  46 NW3       30.47F
EASTON*        SUNNY     25   9  50 CALM      30.51F

$$

MDZ017>025-062300-
SOUTHERN MARYLAND

CITY           SKY/WX    TMP DP  RH WIND       PRES   REMARKS
PATUXENT RIVER MOSUNNY   21   8  57 NE5       30.47F
ST INIGOES     SUNNY     24   5  44 NE3       30.47F
LEONARDTOWN*   SUNNY     27  12  54 CALM      30.48F

$$

MDZ003>005-062300-
NORTH CENTRAL MARYLAND

CITY           SKY/WX    TMP DP  RH WIND       PRES   REMARKS
FREDERICK*     SUNNY     27  -2  28 S6        30.48F
HAGERSTOWN APT MOSUNNY   22  -1  36 E5        30.41F
WESTMINSTER*   SUNNY     21   1  42 CALM      30.41F

$$

MDZ501>502-062300-
WESTERN MARYLAND

CITY           SKY/WX    TMP DP  RH WIND       PRES   REMARKS
OAKLAND*       MOSUNNY   21   7  53 SW7       30.23F
CUMBERLAND*    MOSUNNY   30   5  34 S3        30.42F

$$

VAZ025>031-062300-
SHENANDOAH VALLEY

CITY           SKY/WX    TMP DP  RH WIND       PRES   REMARKS
WINCHESTER*    MOSUNNY   28   1  31 E3        30.41S
FRONT ROYAL*   FAIR      27   9  46 NE3       30.39F
LURAY*         FAIR      30  12  47 CALM      30.39F
NEW MARKET*    FAIR      25   8  48 SW5       30.39S
STAUNTON*      SUNNY     26   8  46 CALM      30.39F
WAYNESBORO*    FAIR      24  13  62 S3        30.35F

$$

WVZ021-048>050-054>055-062300-
EASTERN WEST VIRGINIA PANHANDLE

CITY           SKY/WX    TMP DP  RH WIND       PRES   REMARKS
MARTINSBURG    MOSUNNY   25   3  38 SE5       30.42F
PETERSBURG*    NOT AVBL

$$

VAZ036>039-050-062300-
CENTRAL FOOTHILLS

CITY           SKY/WX    TMP DP  RH WIND       PRES   REMARKS
CHARLOTTESVILL SUNNY     28   7  41 SE3       30.41F
CULPEPER*      SUNNY     28   3  34 CALM      30.46F
ORANGE*        SUNNY     28   5  37 CALM      30.46F
GORDONSVILLE*  FAIR      28   0  31 CALM      30.43F
WARRENTON*     FAIR      28  13  53 CALM      30.45F

$$

VAZ055>057-062300-
NORTH AND CENTRAL PIEDMONT

CITY           SKY/WX    TMP DP  RH WIND       PRES   REMARKS
FREDERICKSBRG* SUNNY     29  10  43 CALM      30.47F
STAFFORD*      SUNNY     28   4  36 CALM      30.51S

$$

NCZ024-NYZ072-PAZ021-071-VAZ022-071-062300-
OTHER REGIONAL OBSERVATIONS

CITY           SKY/WX    TMP DP  RH WIND       PRES   REMARKS
NEW YORK CITY  CLEAR     26   4  38 VRB3      30.43F
PHILADELPHIA   SUNNY     26   9  48 SW8       30.46F WCI  18
PITTSBURGH     PTSUNNY   23   7  50 S12       30.35F WCI  12
ROANOKE        SUNNY     31  15  52 NE6       30.39F
RICHMOND       MOSUNNY   31  10  41 VRB5      30.46S
RALEIGH        MOSUNNY   36  11  35 NE6       30.41F

$$

ANZ530>537-062300-
MARINE OBSERVATIONS

STATION/POSITION TIME  TEMP    WIND        PRES
                       AIR SEA DIR/SP/G
                 (UTC) (F)     (DEG/KT/KT) (MB)
THOMAS PT LIGHT  2200           50/  6/  7   N/A
BALT KEY BRIDGE  2100   28      CALM  /  1 1032.3F
COVE POINT       2100   20      20/  3/  5 1032.6F
LEWISETTA        2100   25 33   CALM  /  4 1032.4F
SOLOMONS ISLAND  2100      34                N/A

$$



USA.gov is the U.S. government's official web portal to all federal, state and local government web resources and services.